Location: Taukkyan
(23.1052°N, 94.0030°E)
Time: 22:19:48
(UTC+00:00)

COSMOS 2441 - Pass Details

Date: 06 July 2020
Orbit: 707 x 732 km, 98.0° (Epoch: 05 August)

Event Time Altitude Azimuth Distance (km) Brightness Sun altitude
Rises 21:15:07 0° 10° (N) 3,111 8.4 -22.2°
Reaches altitude 10° 21:17:23 10° 9° (N) 2,186 7.5 -21.8°
Maximum altitude 21:22:10 80° 283° (WNW) 722 4.2 -20.9°
Enters shadow 21:23:46 42° 203° (SSW) 999 4.7 -20.6°
